Wheeler AAF, HI

8:58 AM HST on March 30, 2017 (GMT -1000)
Wheeler Army Air Field

Weather History for PHHI - April, 2014

Change the Weather History Date:

Wednesday, April 2, 2014

  Actual Average Record
Temperature  
Mean Temperature 74 °F -  
Max Temperature 78 °F 75 °F 82 °F (2015)
Min Temperature 69 °F 62 °F 46 °F (1998)
Cooling Degree Days 8    
Growing Degree Days 24 (Base 50)    
Moisture  
Dew Point 66 °F    
Average Humidity 76    
Maximum Humidity 88    
Minimum Humidity 65    
Precipitation  
Precipitation 0.00 in - - ()
Sea Level Pressure  
Sea Level Pressure 30.11 in    
Wind  
Wind Speed 6 mph (ENE)    
Max Wind Speed 15 mph    
Max Gust Speed 22 mph    
Visibility 10 miles    
Events Rain    
Averages and records for this station are not official NWS values.
T = Trace of Precipitation, MM = Missing Value Source: NWS Daily Summary

Daily Weather History Graph

Daily Weather History Graph

Search for Another Location

Airport or City:

Trip Planner

Search our weather history database for the weather conditions in past years. The results will help you decide how hot, cold, wet, or windy it might be!

Date:

Astronomy

Apr. 02, 2014 Rise Set
Actual Time 6:24 AM HST 6:47 PM HST
Civil Twilight 6:01 AM HST 7:09 PM HST
Nautical Twilight 5:35 AM HST 7:35 PM HST
Astronomical Twilight 5:09 AM HST 8:02 PM HST
Moon 8:37 AM HST (4/2) 9:58 PM HST (4/2)
Length of Visible Light 13h 08m
Length of Day
12h 23m
Waxing Crescent, 11% of the Moon is Illuminated
Apr 2
Waxing Crescent
Apr 6
First Quarter
Apr 14
Full
Apr 21
Last Quarter
Apr 28
New

Hourly Weather History & Observations

Time (HST) Temp. Dew Point Humidity Pressure Visibility Wind Dir Wind Speed Gust Speed Precip Events Conditions
12:04 AM 69.8 °F 66.2 °F 88% 30.12 in 10.0 mi Calm Calm - N/A   Scattered Clouds
12:14 AM 69.8 °F 66.2 °F 88% 30.13 in 10.0 mi WSW 1.2 mph - N/A   Light Drizzle
12:24 AM 69.8 °F 66.2 °F 88% 30.12 in 8.0 mi Calm Calm - N/A Rain Light Rain
12:45 AM 69.8 °F 66.2 °F 88% 30.11 in 10.0 mi Variable 5.8 mph - N/A   Clear
12:58 AM 69.6 °F 65.7 °F 87% 30.08 in 10.0 mi North - - 0.00 in   Partly Cloudy
2:58 AM 71.1 °F 65.3 °F 82% 30.05 in 10.0 mi Variable 1.2 mph - N/A   Mostly Cloudy
3:46 AM 71.6 °F 66.2 °F 83% 30.08 in 10.0 mi Variable 4.6 mph - N/A   Light Drizzle
3:58 AM 70.5 °F 65.7 °F 85% 30.06 in 10.0 mi SE 3.5 mph - 0.00 in   Light Drizzle
4:06 AM 69.8 °F 66.2 °F 88% 30.08 in 10.0 mi East 8.1 mph - N/A   Mostly Cloudy
4:16 AM 69.8 °F 66.2 °F 88% 30.08 in 10.0 mi SE 4.6 mph - N/A   Scattered Clouds
4:36 AM 69.8 °F 64.4 °F 83% 30.09 in 10.0 mi Variable 4.6 mph - N/A   Mostly Cloudy
4:58 AM 70.7 °F 64.6 °F 81% 30.07 in 10.0 mi East 6.9 mph - 0.00 in   Overcast
5:58 AM 70.7 °F 64.4 °F 80% 30.08 in 10.0 mi Variable 4.6 mph - N/A   Overcast
6:58 AM 70.9 °F 64.9 °F 81% 30.09 in 10.0 mi East 5.8 mph - N/A   Overcast
7:58 AM 71.6 °F 64.8 °F 79% 30.11 in 10.0 mi East 4.6 mph - N/A   Overcast
8:49 AM 73.4 °F 66.2 °F 78% 30.14 in 10.0 mi ENE 8.1 mph - N/A   Light Drizzle
9:00 AM 73.4 °F 66.2 °F 78% 30.14 in 10.0 mi ENE 8.1 mph - N/A   Overcast
9:02 AM 73.4 °F 66.2 °F 78% 30.14 in 9.0 mi ENE 6.9 mph - N/A Rain Light Rain
9:14 AM 73.4 °F 66.2 °F 78% 30.14 in 10.0 mi NNE 1.2 mph - N/A   Overcast
9:25 AM 73.4 °F 66.2 °F 78% 30.14 in 10.0 mi ENE 8.1 mph - N/A   Light Drizzle
9:35 AM 73.4 °F 66.2 °F 78% 30.14 in 10.0 mi ENE 10.4 mph - N/A   Mostly Cloudy
9:38 AM 75.2 °F 66.2 °F 73% 30.14 in 10.0 mi NE 8.1 mph - N/A   Light Drizzle
9:43 AM 75.2 °F 66.2 °F 73% 30.14 in 10.0 mi NE 9.2 mph - N/A   Light Drizzle
9:47 AM 75.2 °F 66.2 °F 73% 30.14 in 10.0 mi NE 9.2 mph - N/A   Mostly Cloudy
9:57 AM 77.0 °F 66.2 °F 69% 30.14 in 10.0 mi ENE 6.9 mph - N/A   Mostly Cloudy
9:58 AM 76.1 °F 66.4 °F 72% 30.11 in 10.0 mi ENE 5.8 mph - 0.00 in   Mostly Cloudy
10:03 AM 77.0 °F 66.2 °F 69% 30.14 in 10.0 mi East 10.4 mph 16.1 mph N/A   Mostly Cloudy
10:33 AM 75.2 °F 66.2 °F 73% 30.14 in 10.0 mi ENE 11.5 mph - N/A   Mostly Cloudy
10:53 AM 77.0 °F 66.2 °F 69% 30.14 in 10.0 mi East 10.4 mph - N/A   Mostly Cloudy
10:58 AM 77.2 °F 65.1 °F 66% 30.11 in 10.0 mi East 10.4 mph - N/A   Mostly Cloudy
11:19 AM 75.2 °F 66.2 °F 73% 30.15 in 10.0 mi ENE 11.5 mph 21.9 mph N/A   Light Drizzle
11:46 AM 73.4 °F 68.0 °F 83% 30.14 in 10.0 mi ENE 8.1 mph - N/A   Mostly Cloudy
11:58 AM 75.9 °F 66.4 °F 72% 30.11 in 10.0 mi NE 9.2 mph - 0.00 in   Overcast
12:06 PM 75.2 °F 68.0 °F 78% 30.13 in 10.0 mi NNE 5.8 mph - N/A   Light Drizzle
12:16 PM 75.2 °F 66.2 °F 73% 30.13 in 10.0 mi NE 8.1 mph - N/A   Overcast
12:24 PM 77.0 °F 66.2 °F 69% 30.13 in 10.0 mi East 9.2 mph - N/A   Light Drizzle
12:33 PM 77.0 °F 66.2 °F 69% 30.12 in 10.0 mi East 13.8 mph - N/A   Mostly Cloudy
12:34 PM 77.0 °F 66.2 °F 69% 30.12 in 10.0 mi East 15.0 mph - N/A   Mostly Cloudy
12:54 PM 78.8 °F 66.2 °F 65% 30.12 in 10.0 mi ESE 11.5 mph 18.4 mph N/A   Mostly Cloudy
12:58 PM 78.4 °F 66.2 °F 66% 30.09 in 10.0 mi ESE 8.1 mph 18.4 mph 0.00 in   Mostly Cloudy
1:05 PM 77.0 °F 66.2 °F 69% 30.11 in 10.0 mi ESE 11.5 mph 19.6 mph N/A   Light Drizzle
1:08 PM 77.0 °F 66.2 °F 69% 30.11 in 10.0 mi East 13.8 mph 19.6 mph N/A   Light Drizzle
1:13 PM 77.0 °F 66.2 °F 69% 30.11 in 10.0 mi ENE 9.2 mph 19.6 mph N/A   Light Drizzle
1:15 PM 77.0 °F 66.2 °F 69% 30.11 in 10.0 mi East 8.1 mph 19.6 mph N/A   Mostly Cloudy
1:20 PM 78.8 °F 66.2 °F 65% 30.11 in 10.0 mi East 15.0 mph 19.6 mph N/A   Mostly Cloudy
1:51 PM 75.2 °F 66.2 °F 73% 30.11 in 10.0 mi ENE 10.4 mph - N/A Rain Light Rain
1:58 PM 75.6 °F 67.1 °F 75% 30.09 in 10.0 mi East 13.8 mph - 0.00 in Rain Light Rain
2:01 PM 77.0 °F 66.2 °F 69% 30.11 in 10.0 mi East 11.5 mph - N/A   Mostly Cloudy
2:46 PM 75.2 °F 66.2 °F 73% 30.10 in 10.0 mi NE 8.1 mph - N/A   Light Drizzle
2:55 PM 75.2 °F 66.2 °F 73% 30.10 in 10.0 mi NE 9.2 mph - N/A   Overcast
2:58 PM 75.4 °F 65.8 °F 72% 30.06 in 10.0 mi NNE 9.2 mph - 0.00 in   Overcast
3:32 PM 75.2 °F 66.2 °F 73% 30.09 in 10.0 mi Variable 6.9 mph - N/A   Light Drizzle
3:41 PM 73.4 °F 66.2 °F 78% 30.09 in 10.0 mi East 9.2 mph - N/A   Overcast
3:58 PM 73.9 °F 66.7 °F 78% 30.07 in 10.0 mi SE 8.1 mph - 0.00 in   Overcast
4:58 PM 74.7 °F 64.8 °F 71% 30.06 in 10.0 mi ESE 9.2 mph 20.7 mph N/A   Overcast
5:58 PM 73.4 °F 64.6 °F 74% 30.08 in 10.0 mi ESE 5.8 mph - N/A   Overcast
6:58 PM 73.2 °F 64.2 °F 73% 30.09 in 10.0 mi Calm Calm - N/A   Overcast
7:50 PM 71.6 °F 66.2 °F 83% 30.12 in 10.0 mi Variable 6.9 mph - N/A   Light Drizzle
7:58 PM 72.3 °F 65.3 °F 78% 30.11 in 10.0 mi Variable 3.5 mph - 0.00 in   Light Drizzle
7:59 PM 71.6 °F 64.4 °F 78% 30.13 in 10.0 mi Variable 1.2 mph - N/A   Overcast
8:58 PM 72.7 °F 64.9 °F 77% 30.12 in 10.0 mi East 8.1 mph - 0.00 in   Mostly Cloudy
9:00 PM 71.6 °F 64.4 °F 78% 30.14 in 10.0 mi ENE 9.2 mph - N/A Rain Light Rain
9:13 PM 71.6 °F 64.4 °F 78% 30.14 in 10.0 mi ESE 9.2 mph - N/A   Scattered Clouds
9:28 PM 71.6 °F 64.4 °F 78% 30.15 in 10.0 mi Variable 4.6 mph - N/A   Mostly Cloudy
9:58 PM 71.8 °F 64.0 °F 77% 30.13 in 10.0 mi ENE 9.2 mph 17.3 mph 0.00 in   Mostly Cloudy
10:48 PM 71.6 °F 62.6 °F 73% 30.16 in 10.0 mi East 12.7 mph 19.6 mph N/A   Mostly Cloudy
10:58 PM 71.6 °F 63.9 °F 76% 30.13 in 10.0 mi ENE 15.0 mph - N/A   Mostly Cloudy
11:58 PM 71.1 °F 63.3 °F 76% 30.14 in 10.0 mi ENE 8.1 mph - N/A   Partly Cloudy